User: anonymous   Login
Location: York
(31.8935°S, 116.7682°E)
Time: 18:14:42
(UTC+08:00)
Language:

Vanguard 2 Rocket - Orbit

View from above orbital plane
View from above orbital plane
View from above satellite
View from above satellite

Ground track
Ground track

The orbit data is extracted from the following two-line orbital elements,

1 00012U 59001B   21165.93100578 -.00000026  00000-0 -29350-4 0  9999
2 00012  32.8979 162.6141 1666060 181.8063 177.5820 11.44392159321517
Epoch (UTC): 14 June 2021 22:20:38
Eccentricity: 0.1666060
inclination: 32.8979°
perigee height: 554 km
apogee height: 3325 km
right ascension of ascending node: 162.6141°
argument of perigee: 181.8063°
revolutions per day: 11.44392159
mean anomaly at epoch: 177.5820°
orbit number at epoch: 32151

The dashed part of the orbit path shows where the satellite is in the earth's shadow,  

DLR